Location: Igon
(43.1667°N, 0.2333°W)
Time: 14:57:58
(UTC+00:00)

Cosmos 2263 Rocket - Pass Details

Date: 29 November 2020
Orbit: 823 x 849 km, 71.0° (Epoch: 23 January)

Event Time Altitude Azimuth Distance (km) Brightness Sun altitude
Exits shadow 04:43:02 37° 353° (N) 1,299 3.0 -26.4°
Drops below altitude 10° 04:46:40 10° 16° (NNE) 2,480 4.7 -25.7°
Sets 04:49:13 0° 22° (NNE) 3,421 5.5 -25.3°
